Погода в Терезополисе

Бразилия     22°24′44″S   42°58′00″W
темп.,
°C
ветер,
м/с
пор.,
м/с
влажн.,
%
обл.,
%
осадки,
мм/ч
давл.,
гПа
погр.,
м
28 февраля, вс
вс2800:00+19с129771 1.2 101627
03:00+19с129583 1.4 101431
06:00+17ссз2292100 0.0 101533
09:00+24св126599 0.0 1017543
12:00+27вюв2355100 0.0 10161293
15:00+26юв126899 0.8 10131062
18:00+22в0195100 1.4 101325
21:00+19с119699 2.4 101523
1 марта, пн
пн100:00+19ссз2296100 0.0 101535
03:00+17ссз2293100 0.0 101431
06:00+17ссз229199 0.0 101429
09:00+24всв1265100 0.0 1016624
12:00+27вюв135572 0.0 10151323
15:00+27вюв126384 0.4 10121071
18:00+22всв019399 0.9 101223
21:00+19с229483 0.9 101432
2 марта, вт
вт200:00+18ссз2292100 0.0 101554
03:00+18ссз2288100 0.0 101351
06:00+18ссз238686 0.0 101584
09:00+25с136785 0.0 1016741
12:00+29ссв1352100 0.0 10151398
15:00+29с024685 0.0 10131643
18:00+23ссз118814 0.2 101332
21:00+20ссз229216 0.3 101562
3 марта, ср
ср300:00+20ссз228993 0.0 101668
03:00+20ссз228760 0.0 101557
06:00+19ссз228534 0.0 101670
09:00+27ссз136333 0.0 1016694
12:00+30ссз02558 0.1 10161540
15:00+26сз128333 4.0 1014506
18:00+22с129095 2.9 101424
21:00+20ссз229198 3.6 101629
4 марта, чт
чт400:00+20ссз2286100 0.5 101632
03:00+19ссз228798 0.5 101443
06:00+19ссз2289100 0.0 101556
09:00+26с1366100 0.0 1016668
12:00+30св024458 0.0 10141630
15:00+30ю114662 0.0 10121735
18:00+23вюв119095 0.4 101224
21:00+20сз129482 1.0 101430